Weather reports worldwide

Advertisment
Chania/Souda, Greece (16746): temperature & dewpoint: 20.03.2019 21:00:00 - 26.03.2019 21:00:00 (EET)Chania/Souda, Greece (16746): wind speed: 20.03.2019 21:00:00 - 26.03.2019 21:00:00 (EET)Chania/Souda, Greece (16746): wind direction: 20.03.2019 21:00:00 - 26.03.2019 21:00:00 (EET)Chania/Souda, Greece (16746): reduced air pressure: 20.03.2019 21:00:00 - 26.03.2019 21:00:00 (EET)Chania/Souda, Greece (16746): visibility: 20.03.2019 21:00:00 - 26.03.2019 21:00:00 (EET)
Date & Time tt [°C] td [°C] ff [km/h] ff [kn] dd ppp [hPa] vv [km]
26.03.2019 21:00:00 13,0 9,0 18 10 W - 10
26.03.2019 20:00:00 13,6 9,3 26 14 WNW 1012,9 10
26.03.2019 19:00:00 14,0 10,0 24 13 WNW - 10
26.03.2019 18:00:00 16,0 10,0 24 13 WNW - 10
26.03.2019 17:00:00 16,4 10,4 31 17 W 1011,1 10
26.03.2019 16:00:00 17,0 11,0 37 20 WNW - 10
26.03.2019 15:00:00 18,0 11,0 37 20 W - 10
26.03.2019 14:00:00 18,2 11,3 31 17 W 1010,2 10
26.03.2019 13:00:00 19,0 11,0 37 20 W - 10
26.03.2019 12:00:00 18,0 10,0 29 16 W - 10
26.03.2019 11:00:00 17,8 12,0 31 17 W 1010,5 10
26.03.2019 10:00:00 17,0 10,0 35 19 W - 10
26.03.2019 09:00:00 16,0 9,0 26 14 W - 10
26.03.2019 08:00:00 13,6 9,3 16 9 NW 1010,0 10
26.03.2019 07:00:00 10,0 9,0 18 10 NW - 10
26.03.2019 06:00:00 12,0 9,0 16 9 WNW - 10
26.03.2019 05:00:00 11,0 9,4 16 9 NW 1009,9 10
26.03.2019 04:00:00 10,0 8,0 15 8 WNW - 10
26.03.2019 03:00:00 11,0 8,0 13 7 WNW - 10
26.03.2019 02:00:00 11,0 8,2 15 8 W 1010,5 10
26.03.2019 01:00:00 10,0 8,0 13 7 WNW - 10
26.03.2019 00:00:00 9,0 6,0 15 8 NW - 10
25.03.2019 23:00:00 10,2 3,3 15 8 WNW 1011,0 10
25.03.2019 22:00:00 10,0 6,0 15 8 WNW - 10
25.03.2019 21:00:00 10,0 7,0 11 6 WNW - 10
25.03.2019 20:00:00 11,0 9,0 11 6 WNW 1011,5 10
25.03.2019 19:00:00 12,0 10,0 16 9 WNW - 10
25.03.2019 18:00:00 14,0 9,0 22 12 WNW - 10
25.03.2019 17:00:00 16,0 9,5 21 11 WNW 1012,0 10
25.03.2019 16:00:00 16,0 8,0 18 10 WNW - 10
25.03.2019 15:00:00 18,0 10,0 16 9 WNW - 10
25.03.2019 14:00:00 17,0 9,4 15 8 WNW 1013,1 10
25.03.2019 13:00:00 17,0 10,0 18 10 NNW - 10
25.03.2019 12:00:00 17,0 10,0 13 7 NW - 10
25.03.2019 11:00:00 16,0 9,1 11 6 NW 1014,9 10
25.03.2019 10:00:00 15,0 9,0 21 11 NW - 10
25.03.2019 09:00:00 14,0 8,0 13 7 N - 10
25.03.2019 08:00:00 11,8 6,8 11 6 N 1014,7 10
25.03.2019 07:00:00 9,0 6,0 0 0 N - 10
25.03.2019 06:00:00 10,0 6,0 8 4 W - 10
25.03.2019 05:00:00 9,8 6,4 8 4 W 1015,0 10
25.03.2019 04:00:00 10,0 7,0 8 4 NW - 10
25.03.2019 03:00:00 10,0 6,0 8 4 W - 10
25.03.2019 02:00:00 10,2 5,9 0 0 N 1016,0 10
25.03.2019 01:00:00 11,0 7,0 8 4 N - 10
25.03.2019 00:00:00 11,0 7,0 8 4 NNW - 10
24.03.2019 23:00:00 10,6 7,3 11 6 N 1016,9 10
24.03.2019 22:00:00 12,0 6,0 15 8 NNW - 10
24.03.2019 21:00:00 12,0 5,0 15 8 N - 10
24.03.2019 20:00:00 11,6 4,6 15 8 N 1017,0 10
24.03.2019 19:00:00 12,0 5,0 15 8 N - 10
24.03.2019 18:00:00 13,0 5,0 22 12 N - 10
24.03.2019 17:00:00 14,0 4,0 24 13 N 1016,3 10
24.03.2019 16:00:00 15,0 4,0 18 10 N - 10
24.03.2019 15:00:00 15,0 5,0 24 13 NNE - 10
24.03.2019 14:00:00 16,2 6,0 29 16 N 1016,7 10
24.03.2019 13:00:00 16,0 3,0 37 20 N - 10
24.03.2019 12:00:00 16,0 6,0 26 14 N - 10
24.03.2019 11:00:00 15,6 4,6 18 10 NNE 1016,9 10
24.03.2019 10:00:00 15,0 5,0 22 12 N - 10
24.03.2019 09:00:00 15,0 8,0 22 12 N - 10
24.03.2019 08:00:00 13,6 6,6 18 10 N 1016,5 10
24.03.2019 07:00:00 13,0 4,0 18 10 NNE - 10
24.03.2019 06:00:00 13,0 7,0 15 8 NNE - 10
24.03.2019 05:00:00 13,2 7,5 16 9 N 1015,6 10
24.03.2019 04:00:00 14,0 9,0 28 15 N - 10
24.03.2019 03:00:00 11,0 9,0 8 4 WNW - 10
24.03.2019 02:00:00 11,0 9,0 5 3 WNW 1015,9 10
24.03.2019 01:00:00 11,0 9,0 5 3 W - 10
24.03.2019 00:00:00 11,0 10,0 5 3 W - 10
23.03.2019 23:00:00 11,2 9,6 5 3 W 1016,6 10
23.03.2019 22:00:00 12,0 10,0 8 4 NNW - 10
23.03.2019 21:00:00 13,0 10,0 8 4 NNW - 10
23.03.2019 20:00:00 12,8 10,1 11 6 N 1016,2 10
23.03.2019 19:00:00 14,0 10,0 11 6 N - 10
23.03.2019 18:00:00 15,0 10,0 15 8 N - 10
23.03.2019 17:00:00 15,2 9,4 18 10 NNE 1015,8 10
23.03.2019 16:00:00 15,0 9,0 18 10 NNE - 10
23.03.2019 15:00:00 16,0 10,0 18 10 NNE - 10
23.03.2019 14:00:00 16,6 10,2 16 9 NE 1017,3 10
23.03.2019 13:00:00 16,0 10,0 13 7 NE - 10
23.03.2019 12:00:00 15,0 9,0 16 9 ENE - 10
23.03.2019 11:00:00 14,6 9,2 13 7 ENE 1017,4 10
23.03.2019 10:00:00 14,0 9,0 11 6 N - 10
23.03.2019 09:00:00 14,0 8,0 9 5 N - 10
23.03.2019 08:00:00 13,2 8,4 11 6 N 1017,6 10
23.03.2019 07:00:00 10,0 9,0 0 0 N - 10
23.03.2019 06:00:00 11,0 10,0 0 0 N - 10
23.03.2019 05:00:00 11,4 9,4 0 0 N 1018,2 10
23.03.2019 04:00:00 11,0 9,0 0 0 N - 10
23.03.2019 03:00:00 10,0 9,0 0 0 N - 10
23.03.2019 02:00:00 10,0 9,2 0 0 N 1019,9 10
23.03.2019 01:00:00 10,0 9,0 0 0 N - 10
23.03.2019 00:00:00 10,0 9,0 0 0 N - 10
22.03.2019 23:00:00 10,0 8,4 0 0 N 1021,1 10
22.03.2019 22:00:00 10,0 9,0 0 0 N - 10
22.03.2019 21:00:00 10,0 9,0 0 0 N - 10
22.03.2019 20:00:00 11,6 10,0 0 0 N 1020,6 10
22.03.2019 19:00:00 13,0 9,0 0 0 N - 10
22.03.2019 18:00:00 14,0 11,0 13 7 NNE - 10
22.03.2019 17:00:00 14,8 10,3 18 10 NNE 1020,9 10
22.03.2019 16:00:00 15,0 9,0 13 7 NE - 10
22.03.2019 15:00:00 16,0 10,0 11 6 NNE - 10
22.03.2019 14:00:00 15,2 9,9 13 7 ENE 1022,2 10
22.03.2019 13:00:00 15,0 10,0 15 8 NE - 10
22.03.2019 12:00:00 15,0 11,0 13 7 NNE - 10
22.03.2019 11:00:00 14,2 10,4 11 6 N 1023,1 10
22.03.2019 10:00:00 14,0 11,0 15 8 NNE - 10
22.03.2019 09:00:00 14,0 10,0 15 8 NNE - 10
22.03.2019 08:00:00 13,2 10,1 11 6 N 1022,7 10
22.03.2019 07:00:00 12,0 11,0 13 7 N - 10
22.03.2019 06:00:00 12,0 11,0 8 4 NNW - 10
22.03.2019 05:00:00 12,0 10,1 15 8 NNW 1022,0 10
22.03.2019 04:00:00 12,0 11,0 13 7 NNW - 10
22.03.2019 03:00:00 13,0 11,0 13 7 N - 10
22.03.2019 02:00:00 13,0 11,1 13 7 N 1022,5 10
22.03.2019 01:00:00 13,0 11,0 13 7 N - 10
22.03.2019 00:00:00 13,0 11,0 13 7 NNE - 10
21.03.2019 23:00:00 13,0 11,1 15 8 NNE 1022,5 10
21.03.2019 22:00:00 13,0 11,0 11 6 NNE - 10
21.03.2019 21:00:00 14,0 11,0 11 6 N - 10
21.03.2019 20:00:00 13,8 11,2 18 10 NNE 1021,8 10
21.03.2019 19:00:00 14,0 11,0 13 7 NNE - 10
21.03.2019 18:00:00 14,0 12,0 18 10 NNE - 10
21.03.2019 17:00:00 14,6 11,6 13 7 NNE 1021,1 10
21.03.2019 16:00:00 15,0 11,0 18 10 NE - 10
21.03.2019 15:00:00 16,0 11,0 26 14 NNE - 10
21.03.2019 14:00:00 15,6 11,6 22 12 NNE 1020,7 10
21.03.2019 13:00:00 16,0 12,0 21 11 NNE - 10
21.03.2019 12:00:00 16,0 11,0 22 12 ENE - 10
21.03.2019 11:00:00 15,4 11,7 24 13 NNE 1021,3 10
21.03.2019 10:00:00 15,0 12,0 29 16 NNE - 10
21.03.2019 09:00:00 15,0 12,0 16 9 NNE - 10
21.03.2019 08:00:00 14,0 12,5 21 11 NNE 1020,5 10
21.03.2019 07:00:00 14,0 12,0 16 9 N - 10
21.03.2019 06:00:00 14,0 13,0 9 5 N - 10
21.03.2019 05:00:00 13,4 12,7 0 0 N 1019,3 10
21.03.2019 04:00:00 13,0 13,0 8 4 WSW - 10
21.03.2019 03:00:00 13,0 12,0 0 0 N - 10
21.03.2019 02:00:00 13,2 12,1 0 0 N 1020,2 10
21.03.2019 01:00:00 13,0 12,0 0 0 N - 10
21.03.2019 00:00:00 14,0 12,0 9 5 NNE - 10
20.03.2019 23:00:00 14,2 10,8 13 7 NE 1019,9 10
20.03.2019 22:00:00 14,0 12,0 8 4 E - 10
20.03.2019 21:00:00 13,0 11,0 8 4 SSE - 10

tt = temperature
td = dewpoint
ff = wind speed
dd = wind direction
ppp = reduced air pressure
vv = visibility

Next stations